カタログに戻る

COSMOS 2251 DEB

運用中LEO
NORAD 47073·DEBRIS·🇷🇺 Russia

打ち上げ Jun 16, 1993 から Plesetsk Cosmodrome

Loading…

次のパス (今後24時間)

TLE

古いSource: Space-Track

元期: Aug 16, 2026, 10:59 UTC

1 47073U 93036BYD 26228.45814955  .00000348  00000-0  20486-3 0  9991
2 47073  74.0832 132.4380 0160353 110.9689 250.8690 14.05141773638268

AllMySatでCOSMOS 2251 DEBをリアルタイム追跡

Download on the App Store